Location: Finkenwalde
(53.3770°N, 14.6418°E)
Time: 09:42:55
(UTC+00:00)

CZ-2D R/B - Pass Details

Date: 05 February 2023
Orbit: 509 x 522 km, 97.4° (Epoch: 19 March)

Event Time Altitude Azimuth Distance (km) Brightness Sun altitude
Rises 16:32:37 0° 182° (S) 2,621 7.1 -6.5°
Reaches altitude 10° 16:34:46 10° 189° (S) 1,737 6.2 -6.8°
Maximum altitude 16:38:21 42° 262° (W) 740 4.7 -7.3°
Drops below altitude 10° 16:41:57 10° 334° (NNW) 1,745 6.0 -7.8°
Sets 16:44:08 0° 342° (NNW) 2,636 6.8 -8.1°
